[Date Prev][Date Next][Thread Prev][Thread Next] - [Date Index][Thread Index][Author Index]
2 Line ISS Keps 8-11
- Subject: [sarex] 2 Line ISS Keps 8-11
- From: "Dave Larsen PhD" <doc@xxxxxxxxxxx>
- Date: Wed, 10 Aug 2005 20:43:42 -0700
ISS
1 25544U 98067A 05222.85769517 .00014268 00000-0 11304-3 0 1185
2 25544 051.6453 340.9929 0001104 221.9287 279.5687 15.71607619384281
----
Via the sarex mailing list at AMSAT.ORG courtesy of AMSAT-NA.
To unsubscribe, send "unsubscribe sarex" to Majordomo@amsat.org
AMSAT Home